Preview of NWS' New Version of Forecast
This preview is not operational and should not be used for support decisions.

Regional Weather Roundup (RWR)

Issued by National Weather Service (NWS)

                            
000
ASUS43 KLSX 261557
RWRMO 

WEATHER SUMMARY FOR MISSOURI
NATIONAL WEATHER SERVICE SPRINGFIELD MO
1100 AM CDT TUE MAR 26 2019

NOTE: "FAIR" INDICATES FEW OR NO CLOUDS BELOW 12,000 FEET WITH NO
       SIGNIFICANT WEATHER AND/OR OBSTRUCTIONS TO VISIBILITY.
       CURRENT SKY AND/OR WEATHER CONDITIONS ARE NOT AVAILABLE FOR
       CHILLICOTHE AND FARMINGTON.

MOZ001>031-035>038-043-044-053-054-261700-
...NORTHERN AND WESTERN MISSOURI...
  
CITY           SKY/WX    TMP DP  RH WIND       PRES   REMARKS
KANSAS CTY INT PTSUNNY   51  38  60 SE8       30.40S                  
LEE'S SUMMIT   SUNNY     51  36  56 SE7       30.41S                  
ST JOSEPH      PTSUNNY   49  40  71 S7        30.41S                  
CHILLICOTHE      N/A     47  34  60 S5        30.45R                  
     
$$
MOZ066>068-077>081-088>096-101>105-261700-
...SOUTHWEST MISSOURI...
  
CITY           SKY/WX    TMP DP  RH WIND       PRES   REMARKS
SPRINGFIELD    SUNNY     54  38  54 VRB3      30.38S                  
JOPLIN         SUNNY     55  43  63 CALM      30.41R                  
               
$$
MOZ032>034-039>042-045>050-055>058-069>072-261700-
...CENTRAL MISSOURI...  
  
CITY           SKY/WX    TMP DP  RH WIND       PRES   REMARKS
COLUMBIA       NOT AVBL                                               
JEFFERSON CITY MOSUNNY   50  23  34 N9        30.44S                  
ROLLA          SUNNY     48  26  42 N13       30.41R                  
SEDALIA        SUNNY     50  31  48 SE6       30.43R                  
WARRENSBURG    SUNNY     50  34  53 E5        30.42S                  
               
$$
MOZ051-052-059>065-261700-
...EAST CENTRAL MISSOURI...
  
CITY           SKY/WX    TMP DP  RH WIND       PRES   REMARKS
ST LOUIS INTL  MOSUNNY   42  25  50 E3        30.44R                  
                   
$$
MOZ072>076-082>087-097>100-106>115-261700-
...SOUTH CENTRAL AND SOUTHEAST MISSOURI...
  
CITY           SKY/WX    TMP DP  RH WIND       PRES   REMARKS
CAPE GIRARDEAU FAIR      49  29  46 NE10      30.40R                  
POPLAR BLUFF   FAIR      48  35  60 NE8       30.40R                  
WEST PLAINS    SUNNY     50  35  56 VRB7      30.39S                  
                                       
$$